+ View the NASA Portal
+ Center for Near-Earth Object Studies
JPL Small-Body Database Browser
Search:
[
help
]
58090 (3452 T-3)
Classification:
Main-belt Asteroid
SPK-ID:
2058090
[
Ephemeris
|
Orbit Diagram
|
Orbital Elements
|
Mission Design
|
Physical Parameters
|
Discovery Circumstances
|
Close-Approach Data
]
[ show orbit diagram ]
Orbital Elements at Epoch 2459000.5 (2020-May-31.0) TDB
Reference:
JPL 19
(heliocentric ecliptic J2000)
Element
Value
Uncertainty (1-sigma)
Units
e
.1483102618311829
4.2722e-08
a
2.569181260418826
1.2403e-08
au
q
2.188145314994342
1.1357e-07
au
i
3.473130149698934
4.8331e-06
deg
node
44.15770814896712
7.7563e-05
deg
peri
11.26883478082188
8.1747e-05
deg
M
99.05643790645263
2.5835e-05
deg
t
p
2458586.623515864396
(2019-Apr-13.12351586)
0.00010622
TDB
period
1504.147912420661
4.12
1.0892e-05
2.982e-08
d
yr
n
.239338164170732
1.7331e-09
deg/d
Q
2.950217205843311
1.4242e-08
au
Orbit Determination Parameters
# obs. used (total)
709
data-arc span
15537 days (42.54 yr)
first obs. used
1977-10-07
last obs. used
2020-04-21
planetary ephem.
DE431
SB-pert. ephem.
SB431-N16
condition code
0
norm. resid. RMS
.57359
source
ORB
producer
Otto Matic
solution date
2020-May-20 11:31:31
Additional Information
Earth MOID
= 1.19986 au
Jupiter MOID
= 2.39211 au
T_jup
= 3.413
[ show covariance matrix ]
[
Ephemeris
|
Orbit Diagram
|
Orbital Elements
|
Mission Design
|
Physical Parameters
|
Discovery Circumstances
|
Close-Approach Data
]
Physical Parameter Table
Parameter
Symbol
Value
Units
Sigma
Reference
Notes
absolute magnitude
H
16.0
n/a
MPO412558
diameter
diameter
2.244
km
0.263
urn:nasa:pds:neowise_diameters_albedos::2.0[mainbelt] (http://adsabs.harvard.edu/abs/2011ApJ...741...68M)
geometric albedo
albedo
0.140
0.044
urn:nasa:pds:neowise_diameters_albedos::2.0[mainbelt] (http://adsabs.harvard.edu/abs/2011ApJ...741...68M)
58090 (3452 T-3)
Discovered 1977-Oct-16 by van Houten, C. J., van Houten-Groeneveld, I., Gehrels, T. at Palomar
Reference:
20030318/Numbers.arc
Last Updated:
2004-04-19
[ show close-approach data ]
Alternate Designations
3452 T-3
= 1998 YX25 = 2002 VY32
[
Ephemeris
|
Orbit Diagram
|
Orbital Elements
|
Mission Design
|
Physical Parameters
|
Discovery Circumstances
|
Close-Approach Data
]
2021-Jan-20 10:33 UT
(server date/time)
Site Manager:
Ryan S. Park
Webmaster
:
Alan B. Chamberlin